STARLINK-32404, 61710

Orbit data source: Space-Track

STARLINK-32404, 61710 is a payload satellite owned by SpaceX/Seattle (US) in LEO that was launched on Wed, 30 Oct 2024 UTC via an FALCON 9 launch vehicle from the Air Force Eastern Test Range (AFETR). Payload-class satellites include a variety of spacecraft equipped with specific instruments for various scientific and technological missions. These include communications satellites like Starlink; space stations such as the ISS; scientific satellites like the Hubble; Earth observation satellites from companies like Planet Labs, Umbra, and HawkEye 360; GPS; miniature CubeSats for education and research; and military/defense satellites.

Loading next visibility...
Identifier
61710, 2024-196D
Orbit
LEO
Country
Flag of USUS
Related business
Manufacturer
SpaceX/Seattle
Mission
Operational Commercial Communications
Bus & Motor
STARLINK V2M, Unknown motor
Mass
730 kg wet, ~700 kg dry
Launch date (UTC)
2024-10-30 (11 months ago)
Launch vehicle
FALCON 9
Launch site
Air Force Eastern Test Range (AFETR)
Object type
Payload
Rocket body
Debris
Shape & HBR
Box + 2 Pan, 14.5 m
Radar Cross Section
36.964 m², Large (>1 m²)

Expand to show TLE details & history
Last TLE update: 12 hours ago

TLE from 12 hours ago
0 STARLINK-32404
1 61710U 24196D   25261.19344573  .00002512  00000-0  96922-4 0  9991
2 61710  53.1595 182.7828 0001199  83.1831 276.9306 15.30192171 50744
Epoch: 2025-09-18T04:38Z
TLE epoch observation values (Epoch: 2025-09-18T04:38:33.711Z)
Latitude
-0.00001°
Longitude
115.78377°
Altitude
476.039 km
Speed
7.629 km/s
True Right ascension
12h 11m 07s
True Declination
0° 00' 00"
Sunlit
Object was in daylight at epoch
Visualization orbit readout
Latitude
Unknown
Longitude
Unknown
Altitude
Unknown
Speed
Unknown
Apparent Right ascension
Unknown
Apparent Declination
Unknown
Sunlit
N/A
Visualization observer readout
Local Sidereal Time
09:20:27
Azimuth
Unknown
Elevation
Unknown
Doppler factor
Unknown
Orbital elements
Apogee altitude
476.317 km
Perigee altitude
474.673 km
Semi-major axis
6,853.632 km
Eccentricity
0.00012
Inclination
53.1595°
RAAN
182.7828°
Arg. of periapsis
83.1831°
True anomaly
276.91696°
Mean anomaly
276.9306°
Eccentric anomaly
276.92378°
Mean motion
3.82527 °/min
Orbital period
94.11 mins
BSTAR
0.000096922
Loading maneuver chart data...
Computing Atmospheric mass density...
Loading historical data...
Loading historical data...
Loading historical data...
Loading historical data...
Loading historical data...
Loading historical data...
Loading historical data...

Documentation

Showing up to 5 results
|